Regional Weather Roundup
Issued by NWS

Home | Current Version | Previous Version | Text Only | Print | Product List | Glossary On
Versions: 1 2 3 4 5 6 7 8 9 10 11 12 13 14 15 16 17 18 19 20 21 22 23 24 25 26 27 28 29 30 31 32 33 34 35 36 37 38 39 40 41 42 43 44 45 46 47 48 49 50
000
ASUS43 KMKX 070921
RWRWI

WISCONSIN REGIONAL WEATHER ROUNDUP
NATIONAL WEATHER SERVICE MILWAUKEE/SULLIVAN WI
300 AM CST WED DEC 07 2016

NOTE: "FAIR" INDICATES FEW OR NO CLOUDS BELOW 12,000 FEET WITH NO
SIGNIFICANT WEATHER AND/OR OBSTRUCTIONS TO VISIBILITY.

WIZ001-002-006>008-014>016-023>028-071000-
NORTHWEST WISCONSIN

CITY           SKY/WX    TMP DP  RH WIND       PRES   REMARKS
SUPERIOR ARPT  CLOUDY    21  13  72 SW16G24   29.69R WCI   7
ASHLAND        CLOUDY    21  13  71 SW23G30   29.67R WCI   5
HAYWARD        FLURRIES  19  11  70 SW13G21   29.72R WCI   6
SIREN          FLURRIES  19  11  73 W17G26    29.78R WCI   3
CUMBERLAND     FLURRIES  19  10  68 W15G23    29.77R WCI   5
RICE LAKE      FLURRIES  19  13  77 SW14G22   29.80R WCI   6
CHETEK         FLURRIES  18  13  78 MISG      29.80S
LADYSMITH      FLURRIES  19  14  82 SW15G21   29.77S WCI   5
EAU CLAIRE     CLOUDY    17  11  77 SW14G23   29.84S WCI   3
MENOMONIE      MOCLDY    18  12  77 SW16G22   29.84F WCI   3
NEW RICHMOND   CLOUDY    18  11  72 W16G24    29.84R WCI   4
OSCEOLA        FLURRIES  19  12  72 W16       29.87S WCI   5
$$

WIZ003>005-009-010-017-018-071000-
NORTH CENTRAL WISCONSIN

CITY           SKY/WX    TMP DP  RH WIND       PRES   REMARKS
MANITOWISH WTR FLURRIES  17  13  83 SW13G23   29.65S WCI   4
ARBOR VITAE    FLURRIES  19  14  80 SW13G23   29.67S WCI   6
WOODRUFF       FLURRIES  19  14  80 SW13G23   29.67S WCI   6
RHINELANDER    LGT SNOW  18  13  80 SW13G28   29.70R WCI   5
EAGLE RIVER    LGT SNOW  18  12  76 SW20G26   29.65S WCI   2
LAND O LAKES   FLURRIES  19  13  79 W15G21    29.66R WCI   5
PHILLIPS       LGT SNOW  17  14  88 SW13      29.70S WCI   3
TOMAHAWK       LGT SNOW  17  11  80 SW8       29.73S WCI   6
MEDFORD        FLURRIES  15  10  78 W15G23    29.76S WCI   0
MERRILL        LGT SNOW  17  12  79 W17G23    29.77S WCI   2
$$

WIZ029-030-035-036-043>047-071000-
CENTRAL WISCONSIN

CITY           SKY/WX    TMP DP  RH WIND       PRES   REMARKS
WAUSAU         LGT SNOW  18  12  77 W14       29.79R WCI   4
MOSINEE        FLURRIES  19  16  86 SW20G26   29.80S WCI   4
MARSHFIELD     CLOUDY    18  11  74 W16G23    29.80R WCI   3
STEVENS POINT  CLOUDY    18  11  74 SW17G24   29.83S WCI   3
WAUPACA        PTCLDY    23  15  69 W16G25    29.86R WCI  10
WAUTOMA        PTCLDY    20  14  77 W14       29.89R WCI   7
WISC RAPIDS    CLOUDY    20  14  77 SW17G23   29.87R WCI   5
CAMP DOUGLAS   PTCLDY    19  12  74 SW15      29.90R WCI   5
$$

WIZ011>013-019>022-031-037>040-048>050-071000-
NORTHEAST WISCONSIN

CITY           SKY/WX    TMP DP  RH WIND       PRES   REMARKS
ANTIGO         LGT SNOW  17  13  83 W23G32    29.74S WCI  -1
SHAWANO        CLOUDY    26  17  68 SW15G21   29.81S WCI  13
OCONTO         CLOUDY    26  15  64 W15G25    29.80R WCI  14
STURGEON BAY   CLOUDY    27  17  66 W22       29.79R WCI  13
GREEN BAY      FLURRIES  26  17  68 W17G30    29.83R WCI  13
MANITOWOC      PTCLDY    26  17  68 W14G25    29.83F WCI  14
APPLETON       MOCLDY    23  14  68 W18       29.83R WCI   9
CLINTONVILLE   CLOUDY    25  16  68 W12G22    29.83R WCI  14
OSHKOSH        CLEAR     23  14  68 W12G23    29.86R WCI  12
$$

WIZ032>034-041-042-053>061-071000-
SOUTHWEST WISCONSIN

CITY           SKY/WX    TMP DP  RH WIND       PRES   REMARKS
LA CROSSE      CLOUDY    21  12  68 SW15      29.98R WCI   8
SPARTA         CLOUDY    20  14  76 W10G16    29.93S WCI   9
VIROQUA        CLOUDY    18  13  82 W18G24    29.93S WCI   2
BOSCOBEL       CLOUDY    22  13  68 W12G21    30.01R WCI  10
PRAIRIE DU CHI CLOUDY    21  12  68 W13G18    30.03R WCI   8
PLATTEVILLE    CLOUDY    21  16  81 W17G24    30.01R WCI   6
$$

WIZ056-057-062-063-064-067-068-071000-
SOUTH CENTRAL WISCONSIN

CITY           SKY/WX    TMP DP  RH WIND       PRES   REMARKS
REEDSBURG      CLOUDY    21  15  77 W7        29.93S WCI  12
BARABOO/DELLS  PTCLDY    21  14  76 W13       29.92R WCI   8
LONE ROCK      CLOUDY    22  14  71 W16G24    29.98R WCI   8
MINERAL POINT  CLOUDY    23  18  80 W14G22    29.96R WCI  11
MADISON        MOCLDY    22  14  71 W10G20    29.94R WCI  11
MIDDLETON      NOT AVBL
WATERTOWN      CLEAR     22  16  78 SW14G21   29.93R WCI   9
MONROE         CLEAR     21  16  79 W28       29.96S WCI   3
JANESVILLE     CLEAR     25  18  74 W10G17    29.98S WCI  15
$$

WIZ051-052-058>065-066-070>072-071000-
SOUTHEAST WISCONSIN

CITY           SKY/WX    TMP DP  RH WIND       PRES   REMARKS
MILWAUKEE      CLEAR     26  15  63 W16G28    29.94R WCI  14
WAUKESHA       CLEAR     21  16  79 SW13G20   29.94R WCI   9
MILWAUKEE/TIMM PTCLDY    23  14  68 SW14G22   29.93S WCI  11
RACINE         CLEAR     25  15  66 W13G28    29.96R WCI  14
BURLINGTON     CLEAR     24  17  77 SW17G24   29.96S WCI  10
KENOSHA        CLEAR     24  17  74 W21G29    29.96R WCI   9
FOND DU LAC    CLEAR     24  14  65 SW13G21   29.88R WCI  12
SHEBOYGAN      CLEAR     24  16  71 W14       29.86S WCI  12
WEST BEND      PTCLDY    23  18  80 SW8       29.90R WCI  14
JUNEAU         CLEAR     21  15  76 SW17G24   29.92S WCI   7
$$

LSZ147-162-071000-
LAKE SUPERIOR

STATION/POSITION TIME  TEMP    WIND        PRES    WAVE
                       AIR SEA DIR/SP/G            HT/PER
                 (UTC) (F)     (DEG/KT/KT) (MB)    (FT/S)
DEVILS ISLAND    0900   26     230/ 28/ 33 1003.1R
PORT WING        0840   22     230/ 15/ 20 1004.7R
SAXON HARBOR     0830   22     210/ 12/ 22 1005.1R
$$

LMZ867-665-643>646-071000-
LAKE MICHIGAN

STATION/POSITION TIME  TEMP    WIND        PRES    WAVE
                       AIR SEA DIR/SP/G            HT/PER
                 (UTC) (F)     (DEG/KT/KT) (MB)    (FT/S)
CHAMBERS ISLAND  0840   28     220/ 12/ 21 1007.5S
NORTHPORT PIER   0842   28     250/  7/ 16 1007.8S
SISTER BAY       0853   31     280/ 25/ 30   N/A
KEWAUNEE LAKESHO 0854   27     350/ 12/ 23 1009.4R
SHEBOYGAN LAKESH 0900   26     240/ 16/ 21 1012.1R
PORT WASHINGTON  0840   26     250/ 14/ 22 1013.5R
MILWAUKEE LAKESH 0900   26     260/ 17/ 22   N/A
KENOSHA   LAKESH 0900   26     260/ 19/ 24 1014.6
$$

TC  - TEMPERATURE IN CELSIUS
VSB - VISIBILITY IN STATUTE MILES
WCI - WIND CHILL INDEX
HX  - HEAT INDEX





USA.gov is the U.S. government's official web portal to all federal, state and local government web resources and services.